Regional Weather Roundup
Issued by NWS

Home | Current Version | Previous Version | Graphics & Text | Print | Product List | Glossary On
Versions: 1 2 3 4 5 6 7 8 9 10 11 12 13 14 15 16 17 18 19 20 21 22 23 24 25 26 27 28 29 30 31 32 33 34 35 36 37 38 39 40 41 42 43 44 45 46 47 48 49 50
000
ASUS45 KCYS 171410
RWRWY

WYOMING REGIONAL WEATHER ROUNDUP
NATIONAL WEATHER SERVICE CHEYENNE WY
800 AM MDT THU AUG 17 2017

NOTE:  "FAIR" INDICATES FEW OR NO CLOUDS BELOW 12,000 FEET
WITH NO SIGNIFICANT WEATHER AND/OR OBSTRUCTIONS TO VISIBILITY.

WYZ001-171500-
YELLOWSTONE NATIONAL PARK

CITY           SKY/WX    TMP DP  RH WIND       PRES   REMARKS
LK YELLOWSTONE   N/A     44  42  93 CALM      30.30R
W YELLOWSTONE  NOT AVBL

$$
WYZ002>013-054>058-071-098>099-171500-
NORTHERN WYOMING

CITY           SKY/WX    TMP DP  RH WIND       PRES   REMARKS
JACKSON        FAIR      45  36  70 CALM      30.25R
CODY           PTSUNNY   63  41  44 CALM      30.10R
GREYBULL       FAIR      60  43  53 CALM      30.03R
WORLAND        FAIR      62  43  49 S5        30.04R
SHERIDAN       FAIR      62  48  60 CALM      30.00R
BUFFALO        FAIR      70  39  32 SW3       30.06R
GILLETTE       FAIR      71  38  29 SW8       30.00R
HULETT         FAIR      66  43  42 W5        30.02R
NEWCASTLE      FAIR      59  46  63 CALM      30.04R

$$
WYZ014>020-022>026-101>103-171500-
CENTRAL WYOMING

CITY           SKY/WX    TMP DP  RH WIND       PRES   REMARKS
BIG PINEY      FAIR      45  38  76 CALM      30.29R
PINEDALE       FAIR      45  36  70 NW7       30.30R
DUBOIS         FAIR      50  32  50 NW10      30.25S
LANDER           N/A    N/A N/A N/A MISG      30.13R
RIVERTON       FAIR      64  36  35 W10       30.13R
CASPER         FAIR      66  42  41 SW15      30.11R
DOUGLAS        FAIR      56  50  80 NW3       30.09R

$$
WYZ021-027>030-104>119-171500-
SOUTHERN WYOMING

CITY           SKY/WX    TMP DP  RH WIND       PRES   REMARKS
EVANSTON       FAIR      54  36  50 SE7       30.30R
KEMMERER         N/A     50  37  62 N7        30.30S
FORT BRIDGER   FAIR      61  32  34 W8        30.31R
ROCK SPRINGS   CLOUDY    60  38  43 CALM      30.28R
RAWLINS        FAIR      59  40  49 VRB3      30.25R
SARATOGA       FAIR      55  43  62 NE5       30.29R
LARAMIE        PTSUNNY   58  43  57 SW10      30.26R
CHEYENNE       FAIR      62  45  53 W7        30.18S
TORRINGTON     FAIR      58  53  84 CALM      30.05S
PINE BLUFFS    FAIR      55  52  88 CALM      30.14S

$$



USA.gov is the U.S. government's official web portal to all federal, state and local government web resources and services.